This is the latest recevied weather packets stored in our database for station/object KF7PIZ. If no packets are shown the sender has not sent any weather packets the latest 10 day(s).
| Time | Temp. | Humidity | Pressure | Rain* | Wind** | Luminosity | Snow |
|---|---|---|---|---|---|---|---|
| 1777140682 | 16.67° C | 38% | 1009.8 hPa | 0 mm | - | 229 W/m² | - |
| 1777140378 | 16.67° C | 38% | 1010.1 hPa | 0 mm | - | 360 W/m² | - |
| 1777140076 | 15.56° C | 44% | 1010.1 hPa | 0 mm | - | 442 W/m² | - |
| 1777139774 | 14.44° C | 42% | 1010.1 hPa | 0 mm | - | 255 W/m² | - |
| 1777139469 | 15° C | 41% | 1010 hPa | 0 mm | - | 459 W/m² | - |
| 1777139164 | 16.11° C | 40% | 1010 hPa | 0 mm | - | 605 W/m² | - |
| 1777138862 | 15° C | 42% | 1010.4 hPa | 0 mm | - | 662 W/m² | - |
| 1777138557 | 13.89° C | 46% | 1010.2 hPa | 0 mm | - | 542 W/m² | - |
| 1777138253 | 14.44° C | 45% | 1010 hPa | 0 mm | - | 536 W/m² | - |
| 1777137950 | 15° C | 45% | 1010 hPa | 0 mm | - | 595 W/m² | - |
| 1777137645 | 14.44° C | 46% | 1010.4 hPa | 0 mm | - | 505 W/m² | - |
| 1777137343 | 14.44° C | 48% | 1010.2 hPa | 0 mm | - | 374 W/m² | - |
| 1777137040 | 14.44° C | 50% | 1010.5 hPa | 0 mm | - | 538 W/m² | - |
| 1777136736 | 13.33° C | 51% | 1010.4 hPa | 0 mm | - | 368 W/m² | - |
| 1777136434 | 13.89° C | 47% | 1010.4 hPa | 0 mm | - | 377 W/m² | - |
| 1777136131 | 13.89° C | 53% | 1010.4 hPa | 0 mm | - | 396 W/m² | - |
| 1777135827 | 12.78° C | 52% | 1010.7 hPa | 0 mm | - | 448 W/m² | - |
| 1777135523 | 12.78° C | 52% | 1010.4 hPa | 0 mm | - | 463 W/m² | - |
| 1777135220 | 12.78° C | 52% | 1010.5 hPa | 0 mm | - | 508 W/m² | - |
| 1777134917 | 11.67° C | 54% | 1010.6 hPa | 0 mm | - | 422 W/m² | - |
| 1777134614 | 12.22° C | 56% | 1010.8 hPa | 0 mm | - | 206 W/m² | - |
| 1777134310 | 11.67° C | 56% | 1010.6 hPa | 0 mm | - | 254 W/m² | - |
| 1777134007 | 11.11° C | 61% | 1010.8 hPa | 0 mm | - | 352 W/m² | - |
| 1777133703 | 12.22° C | 56% | 1010.8 hPa | 0 mm | - | 155 W/m² | - |
| 1777133402 | 12.78° C | 57% | 1010.8 hPa | 0 mm | - | 318 W/m² | - |
* Rain latest hour (hover to see other rain measurements)
** Current wind speed in m/s (hover to see current wind gust speed)